Weather History for Bremerton, WA

Change the Weather History Date:

Tuesday, January 15, 2013

  Actual Average Record
Temperature  
Mean Temperature 30 °F -  
Max Temperature 37 °F 42 °F 51 °F (2004)
Min Temperature 24 °F 34 °F 17 °F (2007)
Degree Days  
Heating Degree Days 34    
Moisture  
Dew Point 26 °F    
Average Humidity 81    
Maximum Humidity 93    
Minimum Humidity 74    
Precipitation  
Precipitation 0.00 in - - ()
Sea Level Pressure  
Sea Level Pressure 30.68 in    
Wind  
Wind Speed 0 mph (North)    
Max Wind Speed 7 mph    
Max Gust Speed -    
Visibility 9 miles    
Events      
Averages and records for this station are not official NWS values.
T = Trace of Precipitation, MM = Missing Value Source: NWS Daily Summary

Daily Weather History Graph

Daily Weather History Graph

Search for Another Location

Airport:

Trip Planner

Search our weather history database for the weather conditions in past years. The results will help you decide how hot, cold, wet, or windy it might be!

Date:

Astronomy

Jan. 15, 2013 Rise Set
Actual Time 7:53 AM PST 4:47 PM PST
Civil Twilight 7:19 AM PST 5:22 PM PST
Nautical Twilight 6:41 AM PST 6:00 PM PST
Astronomical Twilight 6:04 AM PST 6:37 PM PST
Moon 9:40 AM PST (1/15) 10:07 PM PST (1/15)
Length of Visible Light 10h 03m
Length of Day
8h 53m
Waxing Crescent, 20% of the Moon is Illuminated
Jan 15
Waxing Crescent
Jan 18
First Quarter
Jan 26
Full
Feb 3
Last Quarter
Feb 9
New

Hourly Weather History & Observations

Time (PST) Temp. Windchill Dew Point Humidity Pressure Visibility Wind Dir Wind Speed Gust Speed Precip Events Conditions
12:15 AM 24.8 °F - 21.2 °F 86% 30.58 in 7.0 mi Calm Calm - N/A   Clear
12:35 AM 24.8 °F - 21.2 °F 86% 30.59 in 8.0 mi Calm Calm - N/A   Mostly Cloudy
12:55 AM 24.8 °F - 21.2 °F 86% 30.60 in 10.0 mi Calm Calm - N/A   Mostly Cloudy
1:15 AM 24.8 °F - 21.2 °F 86% 30.60 in 7.0 mi Calm Calm - N/A   Scattered Clouds
1:35 AM 26.6 °F - 21.2 °F 80% 30.60 in 0.5 mi Calm Calm - N/A   Mostly Cloudy
1:55 AM 24.8 °F - 19.4 °F 80% 30.61 in 6.0 mi Calm Calm - N/A   Partly Cloudy
2:15 AM 24.8 °F - 19.4 °F 80% 30.62 in 10.0 mi Calm Calm - N/A   Mostly Cloudy
2:55 AM 26.6 °F - 23.0 °F 86% 30.64 in 10.0 mi Calm Calm - N/A   Overcast
3:15 AM 28.4 °F - 24.8 °F 86% 30.63 in 10.0 mi Calm Calm - N/A   Overcast
3:35 AM 28.4 °F - 24.8 °F 86% 30.63 in 10.0 mi Calm Calm - N/A   Overcast
3:55 AM 28.4 °F - 24.8 °F 86% 30.63 in 10.0 mi Calm Calm - N/A   Overcast
4:15 AM 28.4 °F - 24.8 °F 86% 30.64 in 4.0 mi Calm Calm - N/A   Overcast
4:35 AM 30.2 °F - 24.8 °F 80% 30.64 in 9.0 mi Calm Calm - N/A   Overcast
4:55 AM 30.2 °F - 26.6 °F 86% 30.63 in 8.0 mi Calm Calm - N/A   Overcast
5:15 AM 30.2 °F - 26.6 °F 86% 30.64 in 10.0 mi Calm Calm - N/A   Overcast
5:35 AM 30.2 °F - 26.6 °F 86% 30.64 in 10.0 mi Calm Calm - N/A   Overcast
5:55 AM 30.2 °F - 26.6 °F 86% 30.64 in 9.0 mi Calm Calm - N/A   Overcast
6:15 AM 30.2 °F - 26.6 °F 86% 30.65 in 10.0 mi Calm Calm - N/A   Overcast
6:35 AM 30.2 °F - 26.6 °F 86% 30.66 in 10.0 mi Calm Calm - N/A   Overcast
6:55 AM 30.2 °F - 26.6 °F 86% 30.66 in 10.0 mi Calm Calm - N/A   Overcast
7:15 AM 30.2 °F - 28.4 °F 93% 30.67 in 10.0 mi Calm Calm - N/A   Overcast
7:35 AM 32.0 °F 28.7 °F 28.4 °F 87% 30.68 in 10.0 mi North 3.5 mph - N/A   Overcast
7:55 AM 33.8 °F 29.6 °F 28.4 °F 81% 30.67 in 10.0 mi NNE 4.6 mph - N/A   Overcast
8:15 AM 33.8 °F 30.8 °F 28.4 °F 81% 30.69 in 10.0 mi NNE 3.5 mph - N/A   Overcast
8:35 AM 33.8 °F 30.8 °F 28.4 °F 81% 30.70 in 10.0 mi NNE 3.5 mph - N/A   Overcast
8:55 AM 33.8 °F - 28.4 °F 81% 30.70 in 10.0 mi Calm Calm - N/A   Overcast
9:15 AM 33.8 °F - 30.2 °F 87% 30.71 in 10.0 mi Calm Calm - N/A   Overcast
9:35 AM 33.8 °F - 30.2 °F 87% 30.70 in 10.0 mi Calm Calm - N/A   Overcast
9:55 AM 33.8 °F - 30.2 °F 87% 30.71 in 8.0 mi Calm Calm - N/A   Overcast
10:15 AM 35.6 °F - 30.2 °F 81% 30.71 in 8.0 mi Calm Calm - N/A   Overcast
10:35 AM 35.6 °F - 30.2 °F 81% 30.71 in 10.0 mi Calm Calm - N/A   Overcast
10:55 AM 35.6 °F - 30.2 °F 81% 30.72 in 10.0 mi Calm Calm - N/A   Overcast
11:15 AM 35.6 °F - 30.2 °F 81% 30.71 in 10.0 mi Calm Calm - N/A   Overcast
11:35 AM 37.4 °F - 30.2 °F 75% 30.72 in 10.0 mi Calm Calm - N/A   Overcast
11:55 AM 37.4 °F - 30.2 °F 75% 30.71 in 10.0 mi Calm Calm - N/A   Overcast
12:15 PM 37.4 °F - 30.2 °F 75% 30.70 in 10.0 mi Calm Calm - N/A   Overcast
12:35 PM 37.4 °F - 30.2 °F 75% 30.71 in 10.0 mi Calm Calm - N/A   Overcast
12:55 PM 37.4 °F - 30.2 °F 75% 30.70 in 10.0 mi Calm Calm - N/A   Overcast
1:15 PM 37.4 °F - 30.2 °F 75% 30.70 in 10.0 mi Calm Calm - N/A   Overcast
1:35 PM 37.4 °F - 30.2 °F 75% 30.71 in 10.0 mi Calm Calm - N/A   Overcast
1:55 PM 37.4 °F - 30.2 °F 75% 30.71 in 10.0 mi Calm Calm - N/A   Overcast
2:15 PM 37.4 °F - 30.2 °F 75% 30.71 in 10.0 mi Calm Calm - N/A   Overcast
2:35 PM 37.4 °F - 30.2 °F 75% 30.72 in 10.0 mi Calm Calm - N/A   Overcast
2:55 PM 37.4 °F - 30.2 °F 75% 30.71 in 10.0 mi Calm Calm - N/A   Overcast
3:15 PM 37.4 °F - 30.2 °F 75% 30.72 in 10.0 mi Calm Calm - N/A   Overcast
3:35 PM 37.4 °F - 30.2 °F 75% 30.71 in 10.0 mi Calm Calm - N/A   Overcast
3:55 PM 37.4 °F - 30.2 °F 75% 30.71 in 10.0 mi Calm Calm - N/A   Overcast
4:15 PM 37.4 °F - 30.2 °F 75% 30.72 in 10.0 mi Calm Calm - N/A   Overcast
4:35 PM 35.6 °F 32.8 °F 30.2 °F 81% 30.70 in 10.0 mi North 3.5 mph - N/A   Overcast
4:55 PM 35.6 °F - 28.4 °F 75% 30.71 in 10.0 mi Calm Calm - N/A   Overcast
5:15 PM 35.6 °F - 28.4 °F 75% 30.71 in 10.0 mi Calm Calm - N/A   Overcast
5:35 PM 35.6 °F 29.9 °F 28.4 °F 75% 30.69 in 10.0 mi NW 6.9 mph - N/A   Scattered Clouds
5:55 PM 33.8 °F 29.6 °F 28.4 °F 81% 30.70 in 10.0 mi NNW 4.6 mph - N/A   Clear
6:15 PM 32.0 °F 28.7 °F 26.6 °F 80% 30.70 in 10.0 mi NNW 3.5 mph - N/A   Clear
6:35 PM 33.8 °F 29.6 °F 28.4 °F 81% 30.69 in 10.0 mi North 4.6 mph - N/A   Clear
6:55 PM 33.8 °F - 26.6 °F 75% 30.69 in 10.0 mi Calm Calm - N/A   Clear
7:15 PM 30.2 °F 26.7 °F 24.8 °F 80% 30.70 in 10.0 mi SW 3.5 mph - N/A   Clear
7:35 PM 26.6 °F - 23.0 °F 86% 30.70 in 10.0 mi Calm Calm - N/A   Clear
7:55 PM 28.4 °F - 24.8 °F 86% 30.69 in 10.0 mi Calm Calm - N/A   Clear
8:15 PM 28.4 °F - 23.0 °F 80% 30.69 in 10.0 mi Calm Calm - N/A   Clear
8:35 PM 26.6 °F - 23.0 °F 86% 30.70 in 10.0 mi Calm Calm - N/A   Clear
8:55 PM 26.6 °F - 21.2 °F 80% 30.71 in 10.0 mi Calm Calm - N/A   Clear
9:15 PM 26.6 °F - 21.2 °F 80% 30.70 in 10.0 mi Calm Calm - N/A   Clear
9:35 PM 26.6 °F - 23.0 °F 86% 30.69 in 10.0 mi Calm Calm - N/A   Clear
10:15 PM 24.8 °F - 19.4 °F 80% 30.68 in 10.0 mi Calm Calm - N/A   Clear
10:35 PM 24.8 °F - 21.2 °F 86% 30.69 in 9.0 mi Calm Calm - N/A   Clear
10:55 PM 24.8 °F - 19.4 °F 80% 30.69 in 5.0 mi Calm Calm - N/A   Clear
11:15 PM 24.8 °F - 19.4 °F 80% 30.69 in 10.0 mi Calm Calm - N/A   Clear
11:35 PM 24.8 °F - 17.6 °F 74% 30.69 in 10.0 mi Calm Calm - N/A   Clear
11:55 PM 24.8 °F - 21.2 °F 86% 30.68 in 10.0 mi Calm Calm - N/A   Clear